Voltar ao catálogo

TITAN 3C TRANSTAGE R/B

AtivoGEO
NORAD 9855·ROCKET BODY·🇺🇸 United States

Lançado Feb 6, 1977 de Cape Canaveral Space Force Station

Loading…

TLE

AtualizadoSource: Space-Track

Época: Sep 14, 2026, 00:42 UTC

1 09855U 77007C   26257.02974536 -.00000156  00000-0  00000-0 0  9999
2 09855   3.1697 266.3367 0016053  46.6271 313.0811  1.00340272 26250

Acompanhe TITAN 3C TRANSTAGE R/B em tempo real com AllMySat

Download on the App Store